Tracking 30995 objects as of 5-Jul-2025
HD Live streaming from Space Station
objects crossing your sky now

KOMPSAT

Track KOMPSAT now!
10-day predictions
KOMPSAT is classified as:


NORAD ID: 26032
Int'l Code: 1999-070A
Perigee: 648.9 km
Apogee: 652.7 km
Inclination: 98.3 °
Period: 97.6 minutes
Semi major axis: 7021 km
RCS: 2.132 m2 (large)
Launch date: December 21, 1999
Source: South Korea (SKOR)
Launch site: AIR FORCE WESTERN TEST RANGE (AFWTR)

Digital cartography of Korea and status of marine biology; satellite also released 3 dozen capsules of cremated remains.
Your satellite tracking list
STRELA 3
Track 1 satellite(s)




NASA's NSSDC Master Catalog

Two Line Element Set (TLE):
1 26032U 99070A   25186.52064676  .00001020  00000-0  15792-3 0  9996
2 26032  98.2689 344.4606 0002695 300.5747  59.5195 14.75473037367980
Source of the keplerian elements: AFSPC